,,PA_Meas_PMT16A,,PR_Meas_QMR101_102,,RH_Meas_QMH101,,SR_Meas_QMS101,,TA_Meas_QMH101,,GenWind,,GenWind,
time,status,PA,status,PR,status,RH,status,SR,status,TA,status,DirAvg,status,SpdAvg,
2015-01-12, 00:00:04,VALID,918.685,VALID,0,VALID,93.3182,VALID,0,VALID,18.7488,VALID,132,VALID,0,
2015-01-12, 00:01:04,VALID,918.684,VALID,0,VALID,92.8456,VALID,0,VALID,18.7293,VALID,132,VALID,0,
2015-01-12, 00:02:04,VALID,918.686,VALID,0,VALID,92.1595,VALID,0,VALID,18.6708,VALID,132,VALID,0,
2015-01-12, 00:03:04,VALID,918.706,VALID,0,VALID,92.3958,VALID,0,VALID,18.6124,VALID,132,VALID,0,
2015-01-12, 00:04:04,VALID,918.723,VALID,0,VALID,92.6855,VALID,0,VALID,18.5553,VALID,145,VALID,0,
2015-01-12, 00:05:04,VALID,918.721,VALID,0,VALID,93.242,VALID,0,VALID,18.4954,VALID,151,VALID,0,
2015-01-12, 00:06:04,VALID,918.748,VALID,0,VALID,93.6155,VALID,0,VALID,18.4759,VALID,152,VALID,0,
2015-01-12, 00:07:04,VALID,918.739,VALID,0,VALID,94.4236,VALID,0,VALID,18.4759,VALID,152,VALID,0,
2015-01-12, 00:08:04,VALID,918.718,VALID,0,VALID,95.0945,VALID,0,VALID,18.4564,VALID,152,VALID,0,
2015-01-12, 00:09:04,VALID,918.734,VALID,0,VALID,95.4071,VALID,0,VALID,18.4954,VALID,148,VALID,0,
2015-01-12, 00:10:04,VALID,918.76,VALID,0,VALID,95.5671,VALID,0,VALID,18.5344,VALID,137,VALID,0,
2015-01-12, 00:11:04,VALID,918.746,VALID,0,VALID,95.6434,VALID,0,VALID,18.5539,VALID,135,VALID,0,
2015-01-12, 00:12:04,VALID,918.73,VALID,0,VALID,95.4985,VALID,0,VALID,18.5539,VALID,135,VALID,0,
2015-01-12, 00:13:04,VALID,918.693,VALID,0,VALID,95.3384,VALID,0.107441,VALID,18.5135,VALID,135,VALID,0,
2015-01-12, 00:14:04,VALID,918.694,VALID,0,VALID,95.2775,VALID,0,VALID,18.533,VALID,135,VALID,0,
2015-01-12, 00:15:04,VALID,918.662,VALID,0,VALID,94.9573,VALID,0,VALID,18.4954,VALID,137,VALID,0,
2015-01-12, 00:16:04,VALID,918.65,VALID,0,VALID,94.5837,VALID,0.107441,VALID,18.4564,VALID,137,VALID,0,
2015-01-12, 00:17:04,VALID,918.661,VALID,0,VALID,94.416,VALID,0,VALID,18.416,VALID,137,VALID,0,
2015-01-12, 00:18:04,VALID,918.67,VALID,0,VALID,94.3703,VALID,0,VALID,18.377,VALID,153,VALID,0,
2015-01-12, 00:19:04,VALID,918.674,VALID,0,VALID,94.2026,VALID,0,VALID,18.3589,VALID,154,VALID,0,
2015-01-12, 00:20:04,VALID,918.643,VALID,0,VALID,94.3169,VALID,0,VALID,18.3199,VALID,155,VALID,0,
2015-01-12, 00:21:04,VALID,918.628,VALID,0,VALID,95.1783,VALID,0,VALID,18.3394,VALID,155,VALID,0,
2015-01-12, 00:22:04,VALID,918.63,VALID,0,VALID,95.4757,VALID,0,VALID,18.299,VALID,155,VALID,0,
2015-01-12, 00:23:04,VALID,918.619,VALID,0,VALID,95.6815,VALID,0,VALID,18.3199,VALID,155,VALID,0,
2015-01-12, 00:24:04,VALID,918.626,VALID,0,VALID,95.8873,VALID,0.107441,VALID,18.3004,VALID,155,VALID,0,
2015-01-12, 00:25:04,VALID,918.64,VALID,0,VALID,96.0093,VALID,0,VALID,18.2615,VALID,155,VALID,0,
2015-01-12, 00:26:04,VALID,918.593,VALID,0,VALID,96.1008,VALID,0,VALID,18.2016,VALID,155,VALID,0,
2015-01-12, 00:27:04,VALID,918.6,VALID,0,VALID,96.1541,VALID,0,VALID,18.2225,VALID,142,VALID,0,
2015-01-12, 00:28:04,VALID,918.579,VALID,0,VALID,96.1465,VALID,0,VALID,18.2211,VALID,148,VALID,0,
2015-01-12, 00:29:04,VALID,918.546,VALID,0,VALID,95.9026,VALID,0,VALID,18.1835,VALID,148,VALID,0,
2015-01-12, 00:30:04,VALID,918.544,VALID,0,VALID,95.8187,VALID,0,VALID,18.164,VALID,147,VALID,0,
2015-01-12, 00:31:04,VALID,918.521,VALID,0,VALID,95.8721,VALID,0,VALID,18.1431,VALID,128,VALID,0,
2015-01-12, 00:32:04,VALID,918.558,VALID,0,VALID,95.8645,VALID,0,VALID,18.164,VALID,128,VALID,0,
2015-01-12, 00:33:04,VALID,918.545,VALID,0,VALID,95.8263,VALID,0,VALID,18.164,VALID,128,VALID,0,
2015-01-12, 00:34:04,VALID,918.505,VALID,0,VALID,95.7349,VALID,0,VALID,18.1835,VALID,140,VALID,0,
2015-01-12, 00:35:04,VALID,918.482,VALID,0,VALID,95.6434,VALID,0,VALID,18.203,VALID,140,VALID,0,
2015-01-12, 00:36:04,VALID,918.461,VALID,0,VALID,95.5595,VALID,0,VALID,18.2211,VALID,136,VALID,0,
2015-01-12, 00:37:04,VALID,918.435,VALID,0,VALID,95.3308,VALID,0.107441,VALID,18.2615,VALID,136,VALID,0,
2015-01-12, 00:38:04,VALID,918.42,VALID,0,VALID,94.9801,VALID,0.107441,VALID,18.2615,VALID,136,VALID,0,
2015-01-12, 00:39:04,VALID,918.422,VALID,0,VALID,94.8124,VALID,0,VALID,18.2615,VALID,136,VALID,0,
2015-01-12, 00:40:04,VALID,918.415,VALID,0,VALID,94.6142,VALID,0,VALID,18.2796,VALID,136,VALID,0,
2015-01-12, 00:41:04,VALID,918.404,VALID,0,VALID,94.2483,VALID,0,VALID,18.2809,VALID,133,VALID,0,
2015-01-12, 00:42:04,VALID,918.365,VALID,0,VALID,93.8976,VALID,0,VALID,18.2809,VALID,133,VALID,0,
2015-01-12, 00:43:04,VALID,918.388,VALID,0,VALID,93.5241,VALID,0,VALID,18.242,VALID,133,VALID,0,
2015-01-12, 00:44:04,VALID,918.341,VALID,0,VALID,93.6842,VALID,0,VALID,18.2225,VALID,145,VALID,0,
2015-01-12, 00:45:04,VALID,918.335,VALID,0,VALID,94.0501,VALID,0,VALID,18.2225,VALID,145,VALID,0,
2015-01-12, 00:46:04,VALID,918.325,VALID,0,VALID,94.1644,VALID,0,VALID,18.2225,VALID,145,VALID,0,
2015-01-12, 00:47:04,VALID,918.293,VALID,0,VALID,94.2407,VALID,0,VALID,18.2225,VALID,145,VALID,0,
2015-01-12, 00:48:04,VALID,918.305,VALID,0,VALID,94.4999,VALID,0,VALID,18.2225,VALID,145,VALID,0,
2015-01-12, 00:49:04,VALID,918.287,VALID,0,VALID,94.5837,VALID,0.107441,VALID,18.1835,VALID,145,VALID,0,
2015-01-12, 00:50:04,VALID,918.25,VALID,0,VALID,94.9115,VALID,0,VALID,18.1835,VALID,164,VALID,0,
2015-01-12, 00:51:04,VALID,918.241,VALID,0,VALID,95.1936,VALID,0,VALID,18.164,VALID,164,VALID,0,
2015-01-12, 00:52:04,VALID,918.214,VALID,0,VALID,95.4223,VALID,0,VALID,18.1445,VALID,164,VALID,0,
2015-01-12, 00:53:04,VALID,918.198,VALID,0,VALID,95.5748,VALID,0,VALID,18.1041,VALID,160,VALID,0,
2015-01-12, 00:54:04,VALID,918.176,VALID,0,VALID,95.7196,VALID,0.107441,VALID,18.1055,VALID,154,VALID,0,
2015-01-12, 00:55:04,VALID,918.179,VALID,0,VALID,95.773,VALID,0,VALID,18.1055,VALID,154,VALID,0,
2015-01-12, 00:56:04,VALID,918.154,VALID,0,VALID,95.773,VALID,0,VALID,18.1055,VALID,154,VALID,0,
2015-01-12, 00:57:04,VALID,918.141,VALID,0,VALID,95.6815,VALID,0,VALID,18.1055,VALID,154,VALID,0,
2015-01-12, 00:58:04,VALID,918.111,VALID,0,VALID,95.5214,VALID,0,VALID,18.086,VALID,154,VALID,0,
2015-01-12, 00:59:04,VALID,918.072,VALID,0,VALID,95.3232,VALID,0,VALID,18.0665,VALID,154,VALID,0,
2015-01-12, 01:00:04,VALID,918.049,VALID,0,VALID,95.1402,VALID,0,VALID,18.086,VALID,154,VALID,0,
2015-01-12, 01:01:04,VALID,918.053,VALID,0,VALID,94.5456,VALID,0,VALID,18.047,VALID,135,VALID,0,
2015-01-12, 01:02:04,VALID,918.03,VALID,0,VALID,94.0882,VALID,0,VALID,18.047,VALID,131,VALID,0,
2015-01-12, 01:03:04,VALID,918.033,VALID,0,VALID,93.8138,VALID,0,VALID,18.047,VALID,131,VALID,0,
2015-01-12, 01:04:04,VALID,918.031,VALID,0,VALID,93.5546,VALID,0,VALID,18.0665,VALID,131,VALID,0,
2015-01-12, 01:05:04,VALID,918.01,VALID,0,VALID,93.1276,VALID,0.107441,VALID,18.047,VALID,125,VALID,0,
2015-01-12, 01:06:04,VALID,918.009,VALID,0,VALID,92.9752,VALID,0,VALID,18.0067,VALID,125,VALID,0,
2015-01-12, 01:07:04,VALID,918.016,VALID,0,VALID,93.0209,VALID,0,VALID,18.008,VALID,125,VALID,0,
2015-01-12, 01:08:04,VALID,918.027,VALID,0,VALID,92.9981,VALID,0,VALID,17.9691,VALID,126,VALID,0,
2015-01-12, 01:09:04,VALID,918.004,VALID,0,VALID,92.9981,VALID,0,VALID,17.9691,VALID,126,VALID,0,
2015-01-12, 01:10:04,VALID,917.999,VALID,0,VALID,92.9904,VALID,0,VALID,17.9691,VALID,126,VALID,0,
2015-01-12, 01:11:04,VALID,917.968,VALID,0,VALID,92.6779,VALID,0,VALID,18.008,VALID,126,VALID,0,
2015-01-12, 01:12:04,VALID,917.965,VALID,0,VALID,92.472,VALID,0.107441,VALID,18.0275,VALID,126,VALID,0,
2015-01-12, 01:13:04,VALID,917.98,VALID,0,VALID,92.1214,VALID,0,VALID,17.9886,VALID,126,VALID,0,
2015-01-12, 01:14:04,VALID,917.984,VALID,0,VALID,92.0985,VALID,0,VALID,17.9691,VALID,130,VALID,0,
2015-01-12, 01:15:04,VALID,918.007,VALID,0,VALID,92.3729,VALID,0,VALID,17.9301,VALID,135,VALID,0,
2015-01-12, 01:16:04,VALID,917.997,VALID,0,VALID,92.6779,VALID,0.107441,VALID,17.9106,VALID,135,VALID,0,
2015-01-12, 01:17:04,VALID,917.977,VALID,0,VALID,93.7147,VALID,0,VALID,17.9106,VALID,135,VALID,0,
2015-01-12, 01:18:04,VALID,917.94,VALID,0,VALID,95.1326,VALID,0,VALID,17.9691,VALID,135,VALID,0,
2015-01-12, 01:19:04,VALID,917.949,VALID,0,VALID,95.3003,VALID,0,VALID,17.9496,VALID,135,VALID,0,
2015-01-12, 01:20:04,VALID,917.908,VALID,0,VALID,95.3461,VALID,0.107441,VALID,17.9287,VALID,135,VALID,0,
2015-01-12, 01:21:04,VALID,917.85,VALID,0,VALID,95.2698,VALID,0,VALID,17.9301,VALID,135,VALID,0,
2015-01-12, 01:22:04,VALID,917.82,VALID,0,VALID,95.3156,VALID,0,VALID,17.9301,VALID,135,VALID,0,
2015-01-12, 01:23:04,VALID,917.832,VALID,0,VALID,95.0945,VALID,0,VALID,17.8911,VALID,135,VALID,0,
2015-01-12, 01:24:04,VALID,917.791,VALID,0,VALID,94.9649,VALID,0,VALID,17.8521,VALID,135,VALID,0,
2015-01-12, 01:25:04,VALID,917.818,VALID,0,VALID,94.7362,VALID,0,VALID,17.8131,VALID,135,VALID,0,
2015-01-12, 01:26:04,VALID,917.812,VALID,0,VALID,94.8887,VALID,0,VALID,17.7741,VALID,125,VALID,0,
2015-01-12, 01:27:04,VALID,917.831,VALID,0,VALID,95.0411,VALID,0,VALID,17.7352,VALID,125,VALID,0,
2015-01-12, 01:28:04,VALID,917.837,VALID,0,VALID,95.1783,VALID,0,VALID,17.7352,VALID,125,VALID,0,
2015-01-12, 01:29:04,VALID,917.823,VALID,0,VALID,95.2698,VALID,0,VALID,17.7157,VALID,125,VALID,0,
2015-01-12, 01:30:04,VALID,917.808,VALID,0,VALID,95.4147,VALID,0,VALID,17.6948,VALID,125,VALID,0,
2015-01-12, 01:31:04,VALID,917.795,VALID,0,VALID,95.3842,VALID,0,VALID,17.7157,VALID,125,VALID,0,
2015-01-12, 01:32:04,VALID,917.809,VALID,0,VALID,93.7985,VALID,0,VALID,17.6182,VALID,125,VALID,0,
2015-01-12, 01:33:04,VALID,917.792,VALID,0,VALID,94.5685,VALID,0,VALID,17.5792,VALID,125,VALID,0,
2015-01-12, 01:34:04,VALID,917.775,VALID,0,VALID,95.4528,VALID,0,VALID,17.6391,VALID,125,VALID,0,
2015-01-12, 01:35:04,VALID,917.752,VALID,0,VALID,95.651,VALID,0.107441,VALID,17.6572,VALID,125,VALID,0,
2015-01-12, 01:36:04,VALID,917.749,VALID,0,VALID,95.6205,VALID,0,VALID,17.6767,VALID,126,VALID,0,
2015-01-12, 01:37:04,VALID,917.738,VALID,0,VALID,95.59,VALID,0,VALID,17.6962,VALID,131,VALID,0,
2015-01-12, 01:38:04,VALID,917.769,VALID,0,VALID,95.4757,VALID,0,VALID,17.6559,VALID,138,VALID,0,
2015-01-12, 01:39:04,VALID,917.788,VALID,0,VALID,95.5062,VALID,0,VALID,17.678,VALID,138,VALID,0,
2015-01-12, 01:40:04,VALID,917.778,VALID,0,VALID,95.5748,VALID,0,VALID,17.6767,VALID,138,VALID,0,
2015-01-12, 01:41:04,VALID,917.807,VALID,0,VALID,95.5138,VALID,0,VALID,17.6572,VALID,136,VALID,0,
2015-01-12, 01:42:04,VALID,917.792,VALID,0,VALID,95.5214,VALID,0,VALID,17.6572,VALID,136,VALID,0,
2015-01-12, 01:43:04,VALID,917.804,VALID,0,VALID,95.5138,VALID,0,VALID,17.6767,VALID,136,VALID,0,
2015-01-12, 01:44:04,VALID,917.774,VALID,0,VALID,95.4452,VALID,0,VALID,17.7157,VALID,135,VALID,0,
2015-01-12, 01:45:04,VALID,917.796,VALID,0,VALID,95.3003,VALID,0,VALID,17.7547,VALID,136,VALID,0,
2015-01-12, 01:46:04,VALID,917.792,VALID,0,VALID,94.881,VALID,0,VALID,17.7547,VALID,136,VALID,0,
2015-01-12, 01:47:04,VALID,917.8,VALID,0,VALID,94.355,VALID,0,VALID,17.756,VALID,154,VALID,0,
2015-01-12, 01:48:04,VALID,917.789,VALID,0,VALID,94.6981,VALID,0,VALID,17.6962,VALID,144,VALID,0,
2015-01-12, 01:49:04,VALID,917.773,VALID,0,VALID,95.0869,VALID,0,VALID,17.6767,VALID,128,VALID,0,
2015-01-12, 01:50:04,VALID,917.745,VALID,0,VALID,94.9268,VALID,0,VALID,17.6585,VALID,125,VALID,0,
2015-01-12, 01:51:04,VALID,917.735,VALID,0,VALID,95.2241,VALID,0,VALID,17.5792,VALID,125,VALID,0,
2015-01-12, 01:52:04,VALID,917.761,VALID,0,VALID,95.4985,VALID,0,VALID,17.6196,VALID,125,VALID,0,
2015-01-12, 01:53:04,VALID,917.781,VALID,0,VALID,95.6205,VALID,0,VALID,17.5987,VALID,125,VALID,0,
2015-01-12, 01:54:04,VALID,917.737,VALID,0,VALID,95.7349,VALID,0,VALID,17.5598,VALID,125,VALID,0,
2015-01-12, 01:55:04,VALID,917.757,VALID,0,VALID,95.8263,VALID,0,VALID,17.5806,VALID,130,VALID,0,
2015-01-12, 01:56:04,VALID,917.725,VALID,0,VALID,95.895,VALID,0,VALID,17.5403,VALID,130,VALID,0,
2015-01-12, 01:57:04,VALID,917.721,VALID,0,VALID,95.9712,VALID,0,VALID,17.5416,VALID,133,VALID,0,
2015-01-12, 01:58:04,VALID,917.699,VALID,0,VALID,96.0855,VALID,0,VALID,17.5611,VALID,136,VALID,0,
2015-01-12, 01:59:04,VALID,917.706,VALID,0,VALID,96.1236,VALID,0,VALID,17.5403,VALID,138,VALID,0,
2015-01-12, 02:00:04,VALID,917.68,VALID,0,VALID,96.1618,VALID,0,VALID,17.5403,VALID,137,VALID,0,
2015-01-12, 02:01:04,VALID,917.681,VALID,0,VALID,96.1618,VALID,0,VALID,17.5598,VALID,137,VALID,0,
2015-01-12, 02:02:04,VALID,917.642,VALID,0,VALID,96.1236,VALID,0,VALID,17.5792,VALID,140,VALID,0,
2015-01-12, 02:03:04,VALID,917.645,VALID,0,VALID,96.0627,VALID,0,VALID,17.5792,VALID,141,VALID,0,
2015-01-12, 02:04:04,VALID,917.642,VALID,0,VALID,96.0093,VALID,0,VALID,17.5792,VALID,141,VALID,0,
2015-01-12, 02:05:04,VALID,917.593,VALID,0,VALID,96.0398,VALID,0,VALID,17.6182,VALID,141,VALID,0,
2015-01-12, 02:06:04,VALID,917.587,VALID,0,VALID,95.9941,VALID,0,VALID,17.678,VALID,135,VALID,0,
2015-01-12, 02:07:04,VALID,917.528,VALID,0,VALID,95.895,VALID,0,VALID,17.7352,VALID,135,VALID,0,
2015-01-12, 02:08:04,VALID,917.508,VALID,0,VALID,95.6891,VALID,0,VALID,17.7936,VALID,128,VALID,0,
2015-01-12, 02:09:04,VALID,917.49,VALID,0,VALID,95.3537,VALID,0,VALID,17.8131,VALID,128,VALID,0,
2015-01-12, 02:10:04,VALID,917.494,VALID,0,VALID,94.7667,VALID,0,VALID,17.8131,VALID,128,VALID,0,
2015-01-12, 02:11:04,VALID,917.51,VALID,0,VALID,94.4084,VALID,0,VALID,17.8131,VALID,129,VALID,0,
2015-01-12, 02:12:04,VALID,917.493,VALID,0,VALID,94.2635,VALID,0,VALID,17.7936,VALID,136,VALID,0,
2015-01-12, 02:13:04,VALID,917.474,VALID,0,VALID,94.2483,VALID,0,VALID,17.7741,VALID,136,VALID,0,
2015-01-12, 02:14:04,VALID,917.437,VALID,0,VALID,94.355,VALID,0,VALID,17.7352,VALID,136,VALID,0,
2015-01-12, 02:15:04,VALID,917.436,VALID,0,VALID,94.6066,VALID,0,VALID,17.6962,VALID,136,VALID,0,
2015-01-12, 02:16:04,VALID,917.41,VALID,0,VALID,95.1479,VALID,0,VALID,17.6572,VALID,161,VALID,0,
2015-01-12, 02:17:04,VALID,917.423,VALID,0,VALID,95.5367,VALID,0,VALID,17.6377,VALID,151,VALID,0,
2015-01-12, 02:18:04,VALID,917.381,VALID,0,VALID,95.7425,VALID,0,VALID,17.5779,VALID,151,VALID,0,
2015-01-12, 02:19:04,VALID,917.367,VALID,0,VALID,95.8873,VALID,0,VALID,17.5806,VALID,151,VALID,0,
2015-01-12, 02:20:04,VALID,917.368,VALID,0,VALID,95.9331,VALID,0.107441,VALID,17.5598,VALID,151,VALID,0,
2015-01-12, 02:21:04,VALID,917.357,VALID,0,VALID,95.9864,VALID,0,VALID,17.5598,VALID,151,VALID,0,
2015-01-12, 02:22:04,VALID,917.323,VALID,0,VALID,95.9636,VALID,0,VALID,17.5403,VALID,151,VALID,0,
2015-01-12, 02:23:04,VALID,917.289,VALID,0,VALID,95.9864,VALID,0,VALID,17.5792,VALID,138,VALID,0,
2015-01-12, 02:24:04,VALID,917.29,VALID,0,VALID,95.9941,VALID,0,VALID,17.6585,VALID,138,VALID,0,
2015-01-12, 02:25:04,VALID,917.317,VALID,0,VALID,95.895,VALID,0,VALID,17.678,VALID,126,VALID,0,
2015-01-12, 02:26:04,VALID,917.314,VALID,0,VALID,95.7196,VALID,0,VALID,17.6962,VALID,127,VALID,0,
2015-01-12, 02:27:04,VALID,917.32,VALID,0,VALID,95.5824,VALID,0,VALID,17.6962,VALID,127,VALID,0,
2015-01-12, 02:28:04,VALID,917.304,VALID,0,VALID,95.4833,VALID,0,VALID,17.7157,VALID,128,VALID,0,
2015-01-12, 02:29:04,VALID,917.292,VALID,0,VALID,95.2851,VALID,0,VALID,17.7547,VALID,127,VALID,0,
2015-01-12, 02:30:04,VALID,917.274,VALID,0,VALID,94.9954,VALID,0,VALID,17.7741,VALID,124,VALID,0,
2015-01-12, 02:31:04,VALID,917.238,VALID,0,VALID,94.5304,VALID,0,VALID,17.7936,VALID,124,VALID,0,
2015-01-12, 02:32:04,VALID,917.244,VALID,0,VALID,94.1263,VALID,0,VALID,17.7936,VALID,124,VALID,0,
2015-01-12, 02:33:04,VALID,917.235,VALID,0,VALID,93.768,VALID,0,VALID,17.7936,VALID,124,VALID,0,
2015-01-12, 02:34:04,VALID,917.276,VALID,0,VALID,93.5927,VALID,0,VALID,17.8145,VALID,124,VALID,0,
2015-01-12, 02:35:04,VALID,917.283,VALID,0,VALID,93.4326,VALID,0,VALID,17.7741,VALID,124,VALID,0,
2015-01-12, 02:36:04,VALID,917.273,VALID,0,VALID,93.3259,VALID,0,VALID,17.7741,VALID,124,VALID,0,
2015-01-12, 02:37:04,VALID,917.231,VALID,0,VALID,93.364,VALID,0,VALID,17.7547,VALID,124,VALID,0,
2015-01-12, 02:38:04,VALID,917.235,VALID,0,VALID,93.3792,VALID,0,VALID,17.7352,VALID,124,VALID,0,
2015-01-12, 02:39:04,VALID,917.226,VALID,0,VALID,93.4402,VALID,0.107441,VALID,17.7157,VALID,124,VALID,0,
2015-01-12, 02:40:04,VALID,917.234,VALID,0,VALID,93.5088,VALID,0,VALID,17.7352,VALID,124,VALID,0,
2015-01-12, 02:41:04,VALID,917.199,VALID,0,VALID,93.5164,VALID,0,VALID,17.7352,VALID,124,VALID,0,
2015-01-12, 02:42:04,VALID,917.23,VALID,0,VALID,93.5012,VALID,0.107441,VALID,17.7157,VALID,124,VALID,0,
2015-01-12, 02:43:04,VALID,917.248,VALID,0,VALID,93.3487,VALID,0,VALID,17.7157,VALID,124,VALID,0,
2015-01-12, 02:44:04,VALID,917.223,VALID,0,VALID,92.5483,VALID,0,VALID,17.6767,VALID,124,VALID,0,
2015-01-12, 02:45:04,VALID,917.239,VALID,0,VALID,91.8164,VALID,0,VALID,17.5598,VALID,124,VALID,0,
2015-01-12, 02:46:04,VALID,917.259,VALID,0,VALID,92.1137,VALID,0,VALID,17.4805,VALID,124,VALID,0,
2015-01-12, 02:47:04,VALID,917.257,VALID,0,VALID,92.594,VALID,0,VALID,17.4623,VALID,124,VALID,0,
2015-01-12, 02:48:04,VALID,917.247,VALID,0,VALID,93.2344,VALID,0,VALID,17.4623,VALID,124,VALID,0,
2015-01-12, 02:49:04,VALID,917.245,VALID,0,VALID,94.1949,VALID,0,VALID,17.5013,VALID,124,VALID,0,
2015-01-12, 02:50:04,VALID,917.232,VALID,0,VALID,94.6371,VALID,0.107441,VALID,17.5403,VALID,124,VALID,0,
2015-01-12, 02:51:04,VALID,917.247,VALID,0,VALID,94.66,VALID,0.107441,VALID,17.5403,VALID,124,VALID,0,
2015-01-12, 02:52:04,VALID,917.225,VALID,0,VALID,94.5456,VALID,0.107441,VALID,17.5208,VALID,124,VALID,0,
2015-01-12, 02:53:04,VALID,917.21,VALID,0,VALID,94.8429,VALID,0.107441,VALID,17.5013,VALID,124,VALID,0,
2015-01-12, 02:54:04,VALID,917.196,VALID,0,VALID,95.0335,VALID,0,VALID,17.5013,VALID,124,VALID,0,
2015-01-12, 02:55:04,VALID,917.219,VALID,0,VALID,95.1402,VALID,0,VALID,17.5416,VALID,124,VALID,0,
2015-01-12, 02:56:04,VALID,917.234,VALID,0,VALID,94.9496,VALID,0,VALID,17.5611,VALID,124,VALID,0,
2015-01-12, 02:57:04,VALID,917.222,VALID,0,VALID,94.4999,VALID,0,VALID,17.5611,VALID,124,VALID,0,
2015-01-12, 02:58:04,VALID,917.203,VALID,0,VALID,93.9205,VALID,0,VALID,17.5611,VALID,124,VALID,0,
2015-01-12, 02:59:04,VALID,917.212,VALID,0,VALID,93.4402,VALID,0,VALID,17.5611,VALID,124,VALID,0,
2015-01-12, 03:00:04,VALID,917.18,VALID,0,VALID,93.12,VALID,0,VALID,17.5221,VALID,124,VALID,0,
2015-01-12, 03:01:04,VALID,917.167,VALID,0,VALID,92.9904,VALID,0,VALID,17.4636,VALID,124,VALID,0,
2015-01-12, 03:02:04,VALID,917.197,VALID,0,VALID,93.0362,VALID,0,VALID,17.4441,VALID,124,VALID,0,
2015-01-12, 03:03:04,VALID,917.173,VALID,0,VALID,93.059,VALID,0,VALID,17.4247,VALID,124,VALID,0,
2015-01-12, 03:04:04,VALID,917.198,VALID,0,VALID,93.1886,VALID,0,VALID,17.4441,VALID,124,VALID,0,
2015-01-12, 03:05:04,VALID,917.176,VALID,0,VALID,93.2191,VALID,0,VALID,17.4441,VALID,124,VALID,0,
2015-01-12, 03:06:04,VALID,917.155,VALID,0,VALID,93.4173,VALID,0,VALID,17.4247,VALID,124,VALID,0,
2015-01-12, 03:07:04,VALID,917.166,VALID,0,VALID,93.4555,VALID,0,VALID,17.4441,VALID,124,VALID,0,
2015-01-12, 03:08:05,VALID,917.153,VALID,0,VALID,93.3259,VALID,0,VALID,17.4052,VALID,124,VALID,0,
2015-01-12, 03:09:05,VALID,917.15,VALID,0,VALID,93.6079,VALID,0.107441,VALID,17.4038,VALID,122,VALID,0,
2015-01-12, 03:10:05,VALID,917.114,VALID,0,VALID,93.4859,VALID,0,VALID,17.4428,VALID,112,VALID,0,
2015-01-12, 03:11:05,VALID,917.079,VALID,0,VALID,92.8532,VALID,0,VALID,17.5013,VALID,111,VALID,0,
2015-01-12, 03:12:05,VALID,917.129,VALID,0,VALID,92.2281,VALID,0,VALID,17.5208,VALID,115,VALID,0,
2015-01-12, 03:13:05,VALID,917.089,VALID,0,VALID,91.6335,VALID,0,VALID,17.5403,VALID,115,VALID,0,
2015-01-12, 03:14:05,VALID,917.117,VALID,0,VALID,91.1684,VALID,0,VALID,17.5598,VALID,123,VALID,0,
2015-01-12, 03:15:05,VALID,917.102,VALID,0,VALID,90.9855,VALID,0,VALID,17.5403,VALID,123,VALID,0,
2015-01-12, 03:16:05,VALID,917.088,VALID,0,VALID,91.016,VALID,0,VALID,17.4818,VALID,123,VALID,0,
2015-01-12, 03:17:05,VALID,917.084,VALID,0,VALID,91.0693,VALID,0,VALID,17.4623,VALID,122,VALID,0,
2015-01-12, 03:18:05,VALID,917.155,VALID,0,VALID,91.1151,VALID,0,VALID,17.4428,VALID,118,VALID,0,
2015-01-12, 03:19:05,VALID,917.103,VALID,0,VALID,91.237,VALID,0,VALID,17.4038,VALID,118,VALID,0,
2015-01-12, 03:20:05,VALID,917.136,VALID,0,VALID,91.3743,VALID,0.107441,VALID,17.3844,VALID,119,VALID,0,
2015-01-12, 03:21:05,VALID,917.142,VALID,0,VALID,91.6106,VALID,0.107441,VALID,17.3649,VALID,124,VALID,0,
2015-01-12, 03:22:05,VALID,917.138,VALID,0,VALID,91.8698,VALID,0,VALID,17.3649,VALID,126,VALID,0,
2015-01-12, 03:23:05,VALID,917.128,VALID,0,VALID,91.9613,VALID,0,VALID,17.3649,VALID,126,VALID,0,
2015-01-12, 03:24:05,VALID,917.143,VALID,0,VALID,92.1976,VALID,0,VALID,17.3454,VALID,140,VALID,0,
2015-01-12, 03:25:05,VALID,917.152,VALID,0,VALID,92.5102,VALID,0,VALID,17.3649,VALID,143,VALID,0,
2015-01-12, 03:26:05,VALID,917.165,VALID,0,VALID,92.6702,VALID,0,VALID,17.3649,VALID,139,VALID,0,
2015-01-12, 03:27:05,VALID,917.153,VALID,0,VALID,92.6245,VALID,0,VALID,17.3844,VALID,139,VALID,0,
2015-01-12, 03:28:05,VALID,917.158,VALID,0,VALID,92.4034,VALID,0.107441,VALID,17.4233,VALID,137,VALID,0,
2015-01-12, 03:29:05,VALID,917.122,VALID,0,VALID,92.1671,VALID,0.107441,VALID,17.4233,VALID,131,VALID,0,
2015-01-12, 03:30:05,VALID,917.107,VALID,0,VALID,92.0909,VALID,0.107441,VALID,17.4233,VALID,132,VALID,0,
2015-01-12, 03:31:05,VALID,917.093,VALID,0,VALID,91.885,VALID,0,VALID,17.4038,VALID,132,VALID,0,
2015-01-12, 03:32:05,VALID,917.088,VALID,0,VALID,91.4048,VALID,0,VALID,17.3844,VALID,134,VALID,0,
2015-01-12, 03:33:05,VALID,917.086,VALID,0,VALID,90.9397,VALID,0,VALID,17.3844,VALID,135,VALID,0,
2015-01-12, 03:34:05,VALID,917.062,VALID,0,VALID,90.5891,VALID,0,VALID,17.3844,VALID,138,VALID,0,
2015-01-12, 03:35:05,VALID,917.06,VALID,0,VALID,90.3299,VALID,0,VALID,17.3844,VALID,138,VALID,0,
2015-01-12, 03:36:05,VALID,917.085,VALID,0,VALID,90.2689,VALID,0,VALID,17.4247,VALID,136,VALID,0,
2015-01-12, 03:37:05,VALID,917.05,VALID,0,VALID,90.2308,VALID,0,VALID,17.4233,VALID,136,VALID,0,
2015-01-12, 03:38:05,VALID,917.037,VALID,0,VALID,90.2994,VALID,0,VALID,17.4038,VALID,136,VALID,0,
2015-01-12, 03:39:05,VALID,917.066,VALID,0,VALID,90.4137,VALID,0,VALID,17.3857,VALID,142,VALID,0,
2015-01-12, 03:40:05,VALID,917.08,VALID,0,VALID,90.6272,VALID,0,VALID,17.3259,VALID,155,VALID,0,
2015-01-12, 03:41:05,VALID,917.072,VALID,0,VALID,90.894,VALID,0,VALID,17.3064,VALID,157,VALID,0,
2015-01-12, 03:42:05,VALID,917.076,VALID,0,VALID,91.0083,VALID,0,VALID,17.3259,VALID,154,VALID,0,
2015-01-12, 03:43:05,VALID,917.07,VALID,0,VALID,91.1913,VALID,0,VALID,17.3064,VALID,139,VALID,0,
2015-01-12, 03:44:05,VALID,917.079,VALID,0,VALID,91.3133,VALID,0,VALID,17.3064,VALID,143,VALID,0,
2015-01-12, 03:45:05,VALID,917.096,VALID,0,VALID,91.4124,VALID,0,VALID,17.3272,VALID,143,VALID,0,
2015-01-12, 03:46:05,VALID,917.067,VALID,0,VALID,91.6335,VALID,0,VALID,17.3064,VALID,143,VALID,0,
2015-01-12, 03:47:05,VALID,917.078,VALID,0,VALID,91.7707,VALID,0,VALID,17.3259,VALID,137,VALID,0,
2015-01-12, 03:48:05,VALID,917.035,VALID,0,VALID,91.7859,VALID,0,VALID,17.3259,VALID,137,VALID,0,
2015-01-12, 03:49:05,VALID,917.045,VALID,0,VALID,91.8698,VALID,0,VALID,17.3454,VALID,135,VALID,0,
2015-01-12, 03:50:05,VALID,917.087,VALID,0,VALID,91.7097,VALID,0,VALID,17.3857,VALID,132,VALID,0,
2015-01-12, 03:51:05,VALID,917.092,VALID,0,VALID,91.3361,VALID,0,VALID,17.4038,VALID,141,VALID,0,
2015-01-12, 03:52:05,VALID,917.092,VALID,0,VALID,90.894,VALID,0,VALID,17.4247,VALID,146,VALID,0,
2015-01-12, 03:53:05,VALID,917.068,VALID,0,VALID,90.4518,VALID,0,VALID,17.4247,VALID,153,VALID,0,
2015-01-12, 03:54:05,VALID,917.035,VALID,0,VALID,89.5828,VALID,0,VALID,17.4038,VALID,131,VALID,0,
2015-01-12, 03:55:05,VALID,916.98,VALID,0,VALID,88.8204,VALID,0.107441,VALID,17.383,VALID,124,VALID,0,
2015-01-12, 03:56:05,VALID,917.022,VALID,0,VALID,86.8993,VALID,0,VALID,17.4233,VALID,122,VALID,0,
2015-01-12, 03:57:05,VALID,917.064,VALID,0,VALID,86.2818,VALID,0,VALID,17.4428,VALID,121,VALID,0,
2015-01-12, 03:58:05,VALID,917.071,VALID,0,VALID,86.3581,VALID,0,VALID,17.4623,VALID,133,VALID,0,